Location: Brabourne
(51.1333°N, 1.0000°E)
Time: 11:24:24
(UTC+00:00)

AVL-802 Canister - Visible Passes

Search period start: 17 August 2022 00:00
Search period end: 27 August 2022 00:00
Orbit: 755 x 868 km, 87.6° (Epoch: 16 August)

Date Brightness Start Highest point End Pass type
(mag) Time Alt. Az. Time Alt. Az. Time Alt. Az.
20 Aug ? 04:08:33 10° ESE 04:12:22 20° ENE 04:16:15 10° NNE visible
21 Aug ? 03:46:28 10° E 03:49:19 14° ENE 03:52:12 10° NE visible
22 Aug ? 03:25:33 10° ENE 03:26:20 10° ENE 03:27:06 10° ENE visible
24 Aug ? 04:15:11 10° SE 04:19:58 31° ENE 04:24:52 10° NNE visible
25 Aug ? 03:52:35 10° SE 03:56:51 23° ENE 04:01:12 10° NNE visible
26 Aug ? 03:30:16 10° ESE 03:33:47 17° ENE 03:37:20 10° NNE visible
